Home   Weather   Charlottetown   Past weeks

Flag for Canada Past Weather in Charlottetown, Prince Edward Island, Canada — Yesterday and Last 2 Weeks

Now
59 °F

Fog.


Feels Like: 56 °F
Forecast: 53 / 59 °F
Wind: 14 mph from South

Location: Charlottetown

Current Time: Apr 28, 2017 at 3:49:48 am

Latest Report: Apr 28, 2017 at 3:00 am


Visibility: 6 mi

Pressure: 30.03 "Hg

Humidity: 100%

Dew Point: 59 °F

Location of CharlottetownLocation

Past Weather in Charlottetown — Graph

°F

Charlottetown Temperature Yesterday

Maximum temperature yesterday: 64 °F (at 12:00 pm)
Minimum temperature yesterday: 52 °F (at 12:25 am)
Average temperature yesterday: 59 °F

High & Low Weather Summary for the Past Weeks

 TemperatureHumidityPressure
High64 °F (Apr 27, 12:00 pm)100% (Apr 16, 4:00 pm)30.69 "Hg (Apr 16, 4:00 pm)
Low18 °F (Apr 19, 6:00 am)28% (Apr 25, 10:00 am)29.65 "Hg (Apr 17, 5:00 am)
Average39 °F75%30.16 "Hg
* Reported Apr 13 2:00 am — Apr 28 2:00 am, Charlottetown, Weather by CustomWeather, © 2017

Note: Actual official high and low records may vary slightly from our data, if they occured in-between our weather recording intervals... More about our weather records

Advertising

Charlottetown Weather History for the Previous 24 Hours

Scroll right to see more
 ConditionsComfort  
Time TempWeatherWind HumidityBarometerVisibility
2:00 am
Fri, Apr 28
59 °FFog.12 mph94%30.06 "Hg6 mi
1:00 am59 °FFog.14 mph100%30.07 "Hg6 mi
12:00 am59 °FFog.10 mph100%30.08 "Hg6 mi
11:40 pm
Thu, Apr 27
59 °FFog.9 mph100%30.09 "Hg6 mi
11:00 pm61 °FFog.10 mph94%30.09 "Hg5 mi
10:31 pm59 °FFog.8 mph100%30.10 "Hg6 mi
10:00 pm61 °FMostly cloudy.12 mph94%30.10 "Hg8 mi
9:00 pm61 °FMostly cloudy.14 mph94%30.10 "Hg8 mi
8:00 pm61 °FFog.14 mph94%30.10 "Hg10 mi
7:43 pm61 °FFog.14 mph94%30.09 "Hg10 mi
7:00 pm61 °FSprinkles. Broken clouds.14 mph94%30.10 "Hg8 mi
6:00 pm61 °FBroken clouds.15 mph94%30.11 "Hg10 mi
5:00 pm61 °FSprinkles. Broken clouds.16 mph94%30.11 "Hg10 mi
4:19 pm61 °FSprinkles. Broken clouds.16 mph100%30.10 "Hg15 mi
4:00 pm63 °FSprinkles. Partly sunny.15 mph94%30.10 "Hg15 mi
3:00 pm63 °FSprinkles. More clouds than sun.15 mph94%30.12 "Hg15 mi
2:24 pm63 °FSprinkles. Mostly cloudy.18 mph94%30.12 "Hg15 mi
2:00 pm64 °FLight rain. Cloudy.16 mph94%30.12 "Hg12 mi
1:52 pm63 °FLight rain. Cloudy.18 mph94%30.12 "Hg12 mi
1:00 pm61 °FLight rain. Fog.16 mph94%30.12 "Hg4 mi
12:14 pm64 °FLight rain. Mostly cloudy.12 mph83%30.13 "Hg8 mi
12:00 pm64 °FScattered showers. Mostly cloudy.14 mph83%30.13 "Hg12 mi
11:00 am61 °FLow clouds.13 mph88%30.14 "Hg10 mi
10:00 am61 °FMostly cloudy.16 mph94%30.13 "Hg10 mi
9:00 am59 °FLow clouds.15 mph94%30.13 "Hg10 mi
8:35 am57 °FFog.15 mph94%30.14 "Hg8 mi
7:43 am55 °FFog.10 mph94%30.14 "Hg6 mi
7:00 am57 °FPartly sunny.12 mph94%30.14 "Hg12 mi
6:00 am55 °FFog.14 mph94%30.13 "Hg6 mi
5:43 am54 °FFog.15 mph100%30.12 "Hg6 mi
5:00 am54 °FPassing clouds.8 mph94%30.13 "Hg8 mi
4:00 am54 °FLow clouds.12 mph94%30.12 "Hg8 mi
3:00 am52 °FFog.13 mph100%30.13 "Hg4 mi
Weather by CustomWeather, © 2017

See weather overviewHow to use our weather pages